Snowfall_Accumulation
0.0 0.0 0.0 0.0 0.0 0.0 0.0 0.0 0.0 0.0 0.0 0.0 0.0 0.0 0.0 0.0 0.0 0.0 0.0 0.0 0.0 0.0 0.0 0.0 0.0 0.0 0.0 0.0 0.0 0.0 0.0 0.0 0.0 0.0 0.0 0.0 0.0 0.0 0.0 0.0 0.0 0.0 0.0 0.0
0.0 0.0 0.0 0.0 0.0 0.0 0.0 0.0 0.0 0.0 0.0 0.0 0.0 0.0 0.0 0.0 0.0 0.0 0.0 0.0 0.0 0.0 0.0 0.0 0.0 0.0 0.0 0.0 0.0 0.0 0.0 0.0 0.0 0.0 0.0 0.0 0.0 0.0 0.0 0.0 0.0 0.0 0.0 0.0
0.0 0.0 0.0 0.0 0.0 0.0 0.0 0.0 0.0 0.0 0.0 0.0 0.0 0.0 0.0 0.0 0.0 0.0 0.0 0.0 0.0 0.0 0.0 0.0 0.0 0.0 0.0 0.0 0.0 0.0 0.0 0.0 0.0 0.0 0.0 0.0 0.0 0.0 0.0 0.0 0.0 0.0 0.0 0.0
0.0 0.0 0.0 0.0 0.0 0.0 0.0 0.0 0.0 0.0 0.0 0.0 0.0 0.0 0.0 0.0 0.0 0.0 0.0 0.0 0.0 0.0 0.0 0.0 0.0 0.0 0.0 0.0 0.0 0.0 0.0 0.0 0.0 0.0 0.0 0.0 0.0 0.0 0.0 0.0 0.0 0.0 0.0 0.0
0.0 0.0 0.0 0.0 0.0 0.0 0.0 0.0 0.0 0.0 0.0 0.0 0.0 0.0 0.0 0.0 0.0 0.0 0.0 0.0 0.0 0.0 0.0 0.0 0.0 0.0 0.0 0.0 0.0 0.0 0.0 0.0 0.0 0.0 0.0 0.0 0.0 0.0 0.0 0.0 0.0 0.0 0.0 0.0
0.0 0.0 0.0 0.0 0.0 0.0 0.0 0.0 0.0 0.0 0.0 0.2 0.0 0.0 0.0 0.0 0.0 0.0 0.0 0.0 0.0 0.0 0.0 0.0 0.0 0.0 0.0 0.0 0.0 0.0 0.0 0.0 0.0 0.0 0.0 0.0 0.0 0.0 0.0 0.0 0.0 0.0 0.0 0.0
0.0 0.0 0.0 0.0 0.0 0.0 0.0 0.0 0.2 0.6 1.5 0.7 0.0 0.1 0.0 0.0 0.0 0.0 0.0 0.0 0.0 0.0 0.0 0.0 0.0 0.0 0.0 0.0 0.0 0.0 0.0 0.0 0.0 0.0 0.0 0.0 0.0 0.0 0.0 0.0 0.0 0.0 0.0 0.0
0.0 0.0 0.0 0.0 0.0 0.0 0.0 0.0 1.0 4.2 1.6 0.5 0.1 0.2 0.0 0.0 0.0 0.0 0.0 0.0 0.0 0.0 0.0 0.0 0.0 0.0 0.0 0.0 0.0 0.0 0.0 0.0 0.0 0.0 0.0 0.0 0.0 0.0 0.0 0.0 0.0 0.0 0.0 0.0
0.0 0.0 0.0 0.0 0.0 0.0 0.0 0.0 0.0 0.4 3.3 3.5 0.0 0.0 0.0 0.0 0.0 0.0 0.0 0.0 0.0 0.0 0.0 0.0 0.0 0.0 0.0 0.0 0.0 0.0 0.0 0.0 0.0 0.0 0.0 0.0 0.0 0.0 0.0 0.0 0.0 0.0 0.0 0.0
0.0 1.1 0.0 0.0 0.0 0.0 0.0 0.0 0.4 0.4 6.9 5.8 0.0 0.0 0.0 0.0 0.0 0.0 0.0 0.0 0.0 0.0 0.0 0.0 0.0 0.0 0.0 0.0 0.0 0.0 0.0 0.0 0.0 0.0 0.0 0.0 0.0 0.0 0.0 0.0 0.0 0.0 0.0 0.0
0.0 0.2 0.1 0.0 0.0 0.0 0.0 0.0 0.0 0.2 1.4 3.9 2.8 0.2 0.0 0.0 0.0 0.0 0.0 0.0 0.0 0.0 0.0 0.0 0.0 0.0 0.0 0.0 0.0 0.0 0.0 0.0 0.0 0.0 0.0 0.0 0.0 0.0 0.0 0.0 0.0 0.0 0.0 0.0
0.0 0.0 2.1 0.0 0.0 0.0 0.0 0.0 0.0 1.1 0.5 0.5 1.0 1.4 0.0 0.0 0.0 0.0 0.0 0.0 0.0 0.0 0.0 0.0 0.0 0.0 0.0 0.0 0.0 0.0 0.0 0.0 0.0 0.0 0.0 0.0 0.0 0.0 0.0 0.0 0.0 0.0 0.0 0.0
0.0 0.8 6.6 3.4 0.0 0.0 0.0 0.0 0.0 0.2 1.6 5.3 9.4 3.9 0.0 0.0 0.0 0.0 0.0 0.0 0.0 0.0 0.0 0.0 0.0 0.0 0.0 0.0 0.0 0.0 0.0 0.0 0.0 0.0 0.0 0.0 0.0 0.0 0.0 0.0 0.0 0.0 0.0 0.0
nan 0.3 2.2 2.7 0.2 0.0 0.5 0.1 0.1 0.7 6.1 1.9 2.6 0.5 0.0 0.0 0.0 0.0 0.0 0.0 0.0 0.0 0.0 0.0 0.0 0.0 0.0 0.0 0.0 0.0 0.0 0.0 0.0 0.0 0.0 0.0 0.0 0.0 0.0 0.0 0.0 0.0 0.0 0.0
0.0 5.0 0.3 0.2 0.2 0.3 0.7 0.3 0.0 0.1 0.0 2.1 0.4 0.3 0.0 0.1 0.2 0.0 0.0 0.0 0.0 0.0 0.0 0.0 0.0 0.0 0.0 0.0 0.0 0.0 0.0 0.0 0.0 0.0 0.0 0.0 0.0 0.0 0.1 0.1 0.1 0.1 0.1 0.1
0.0 5.6 0.9 4.8 0.1 0.1 0.2 0.0 0.1 0.1 0.1 0.1 0.0 0.0 0.0 0.0 0.0 0.0 0.0 0.0 0.0 0.0 0.0 0.0 0.0 0.0 0.0 0.0 0.0 0.0 0.0 0.0 0.0 0.0 0.0 0.0 0.2 0.3 0.3 0.4 0.6 0.2 0.2 0.2
0.4 3.0 8.4 14.4 0.4 0.5 6.8 0.9 0.0 0.0 0.0 0.0 0.3 0.1 0.8 0.4 0.0 0.0 0.0 0.0 0.0 0.0 0.0 0.0 0.0 0.0 0.0 0.0 0.0 0.0 0.0 0.1 0.2 0.3 0.8 0.8 0.9 1.7 0.8 0.5 0.6 0.5 0.4 0.4
0.2 3.1 6.6 18.2 9.9 28.9 2.1 0.0 0.0 0.0 0.1 0.4 1.2 2.3 1.3 0.4 0.0 0.0 0.1 0.1 0.0 0.0 0.0 0.0 0.0 0.0 0.0 0.0 0.0 0.0 0.2 0.3 0.5 1.7 2.7 1.7 1.4 2.6 0.5 0.4 0.4 0.6 0.4 0.5
0.0 0.2 9.9 28.0 18.9 1.1 0.3 0.0 0.0 0.4 0.8 1.2 1.9 0.8 0.2 0.0 0.0 0.0 0.0 0.0 0.0 0.0 0.0 0.0 0.0 0.0 0.0 0.0 0.0 0.4 0.4 0.4 0.5 0.6 1.1 1.3 2.1 3.1 1.1 3.2 0.7 0.7 1.8 0.9
0.1 0.1 1.3 21.1 27.3 20.3 0.2 0.0 0.0 0.0 3.1 2.4 3.0 1.7 1.0 0.1 2.4 0.2 0.0 0.0 0.0 0.0 0.0 0.0 0.0 0.0 0.0 0.2 0.4 0.5 0.6 0.6 0.7 0.7 0.7 0.9 2.0 4.5 3.6 1.8 2.8 3.0 2.8 2.6
5.7 10.3 14.5 14.5 23.5 7.1 1.3 0.6 0.0 6.4 4.9 2.1 1.1 0.8 0.5 1.3 0.4 0.1 0.0 0.0 0.0 0.0 0.0 0.0 0.0 0.1 0.3 0.5 0.7 0.6 0.6 0.8 0.9 1.5 1.3 1.5 2.1 4.8 3.1 3.4 2.6 3.8 4.0 2.0
2.2 9.5 20.6 16.0 21.4 24.2 0.5 0.2 1.2 0.9 0.2 0.8 0.2 0.1 0.3 0.1 0.0 0.0 0.0 0.0 0.0 0.0 0.1 0.2 0.9 0.6 0.6 0.9 1.3 0.9 0.7 0.8 1.2 1.6 1.8 3.2 5.3 5.0 4.8 8.1 4.8 6.3 5.5 5.3
6.6 1.7 8.4 3.2 4.2 0.1 0.4 0.3 0.1 0.1 1.0 0.4 0.3 0.2 0.0 0.0 0.0 0.0 0.0 0.0 0.0 0.4 0.7 1.0 1.5 1.2 0.8 1.1 1.9 3.1 1.1 1.3 1.8 5.5 7.5 7.6 6.6 6.6 6.6 9.5 5.6 7.2 5.9 7.0
0.1 0.0 1.6 2.0 0.1 0.1 0.0 0.0 0.0 0.1 0.2 0.1 0.2 0.2 0.1 0.1 0.2 0.4 0.6 0.5 0.4 0.6 0.5 1.2 1.9 1.7 1.7 2.2 3.0 3.6 2.3 2.0 11.1 10.6 5.4 4.3 5.6 4.3 5.5 7.3 8.6 11.1 8.6 7.1
0.4 0.4 0.6 1.2 0.0 0.0 0.0 0.0 0.0 0.0 0.2 0.3 0.3 0.2 0.0 0.2 0.7 0.5 0.9 1.1 0.5 0.5 0.9 1.2 1.8 1.6 2.3 2.0 2.5 3.9 4.2 5.0 7.0 7.3 4.1 5.6 7.8 8.5 4.9 4.3 9.0 7.4 4.4 9.5
0.0 0.0 0.2 1.9 0.0 0.0 0.0 0.0 0.0 0.0 0.1 0.2 0.2 0.4 0.4 0.4 0.4 0.5 0.9 0.5 0.8 1.0 1.3 1.7 1.5 1.8 2.7 3.5 3.9 5.5 7.4 7.2 7.4 4.6 6.2 6.2 6.0 5.1 4.3 4.6 4.7 nan nan nan
Water_Equivalent
0.00 0.00 0.00 0.00 0.00 0.00 0.00 0.00 0.00 0.00 0.00 0.00 0.00 0.00 0.00 0.00 0.00 0.00 0.00 0.00 0.00 0.00 0.00 0.00 0.00 0.00 0.00 0.00 0.00 0.00 0.00 0.00 0.00 0.00 0.00 0.00 0.00 0.00 0.00 0.00 0.00 0.00 0.00 0.00
0.00 0.00 0.00 0.00 0.00 0.00 0.00 0.00 0.00 0.00 0.00 0.00 0.00 0.00 0.00 0.00 0.00 0.00 0.00 0.00 0.00 0.00 0.00 0.00 0.00 0.00 0.00 0.00 0.00 0.00 0.00 0.00 0.00 0.00 0.00 0.00 0.00 0.00 0.00 0.00 0.00 0.00 0.00 0.00
0.00 0.00 0.00 0.00 0.00 0.00 0.00 0.00 0.00 0.00 0.00 0.00 0.00 0.00 0.00 0.00 0.00 0.00 0.00 0.00 0.00 0.00 0.00 0.00 0.00 0.00 0.00 0.00 0.00 0.00 0.00 0.00 0.00 0.00 0.00 0.00 0.00 0.00 0.00 0.00 0.00 0.00 0.00 0.00
0.00 0.00 0.00 0.00 0.00 0.00 0.00 0.00 0.00 0.00 0.00 0.00 0.00 0.00 0.00 0.00 0.00 0.00 0.00 0.00 0.00 0.00 0.00 0.00 0.00 0.00 0.00 0.00 0.00 0.00 0.00 0.00 0.00 0.00 0.00 0.00 0.00 0.00 0.00 0.00 0.00 0.00 0.00 0.00
0.00 0.00 0.00 0.00 0.00 0.00 0.00 0.00 0.00 0.00 0.00 0.00 0.00 0.00 0.00 0.00 0.00 0.00 0.00 0.00 0.00 0.00 0.00 0.00 0.00 0.00 0.00 0.00 0.00 0.00 0.00 0.00 0.00 0.00 0.00 0.00 0.00 0.00 0.00 0.00 0.00 0.00 0.00 0.00
0.00 0.00 0.00 0.00 0.00 0.00 0.00 0.00 0.00 0.00 0.00 0.04 0.00 0.00 0.00 0.00 0.00 0.00 0.00 0.00 0.00 0.00 0.00 0.00 0.00 0.00 0.00 0.00 0.00 0.00 0.00 0.00 0.00 0.00 0.00 0.00 0.00 0.00 0.00 0.00 0.00 0.00 0.00 0.00
0.00 0.00 0.00 0.00 0.00 0.00 0.00 0.00 0.05 0.11 0.27 0.14 0.00 0.02 0.00 0.00 0.00 0.00 0.00 0.00 0.00 0.00 0.00 0.00 0.00 0.00 0.00 0.00 0.00 0.00 0.00 0.00 0.00 0.00 0.00 0.00 0.00 0.00 0.00 0.00 0.00 0.00 0.00 0.00
0.00 0.00 0.00 0.00 0.00 0.00 0.00 0.00 0.19 0.59 0.27 0.11 0.02 0.05 0.00 0.00 0.00 0.00 0.00 0.00 0.00 0.00 0.00 0.00 0.00 0.00 0.00 0.00 0.00 0.00 0.00 0.00 0.00 0.00 0.00 0.00 0.00 0.00 0.00 0.00 0.00 0.00 0.00 0.00
0.00 0.01 0.00 0.00 0.00 0.00 0.00 0.00 0.00 0.08 0.49 0.54 0.00 0.00 0.00 0.00 0.00 0.00 0.00 0.00 0.00 0.00 0.00 0.00 0.00 0.00 0.00 0.00 0.00 0.00 0.00 0.00 0.00 0.00 0.00 0.00 0.00 0.00 0.00 0.00 0.00 0.00 0.00 0.00
0.00 0.20 0.00 0.00 0.00 0.00 0.00 0.00 0.06 0.08 0.84 0.65 0.00 0.00 0.00 0.00 0.00 0.00 0.00 0.00 0.00 0.00 0.00 0.00 0.00 0.00 0.00 0.00 0.00 0.00 0.00 0.00 0.00 0.00 0.00 0.00 0.00 0.00 0.00 0.00 0.00 0.00 0.00 0.00
0.00 0.03 0.01 0.00 0.00 0.00 0.00 0.00 0.00 0.04 0.25 0.52 0.37 0.03 0.00 0.00 0.00 0.00 0.00 0.00 0.00 0.00 0.00 0.00 0.00 0.00 0.00 0.00 0.00 0.00 0.00 0.00 0.00 0.00 0.00 0.00 0.00 0.00 0.00 0.00 0.00 0.00 0.00 0.00
0.00 0.01 0.37 0.00 0.00 0.00 0.00 0.00 0.00 0.20 0.08 0.10 0.21 0.21 0.00 0.00 0.00 0.00 0.00 0.00 0.00 0.00 0.00 0.00 0.00 0.00 0.00 0.00 0.00 0.00 0.00 0.00 0.00 0.00 0.00 0.00 0.00 0.00 0.00 0.00 0.00 0.00 0.00 0.00
0.00 0.20 1.12 0.58 0.01 0.00 0.00 0.00 0.00 0.04 0.30 0.75 1.15 0.54 0.00 0.00 0.00 0.00 0.00 0.00 0.00 0.00 0.00 0.00 0.00 0.00 0.00 0.00 0.00 0.00 0.00 0.00 0.00 0.00 0.00 0.00 0.00 0.00 0.00 0.00 0.00 0.00 0.00 0.00
nan 0.08 0.44 0.42 0.03 0.00 0.09 0.01 0.01 0.13 0.82 0.31 0.41 0.09 0.00 0.00 0.00 0.00 0.00 0.00 0.00 0.00 0.00 0.00 0.00 0.00 0.00 0.00 0.00 0.00 0.00 0.00 0.00 0.00 0.00 0.00 0.00 0.00 0.00 0.00 0.01 0.00 0.00 0.00
0.00 1.00 0.07 0.04 0.03 0.05 0.12 0.06 0.01 0.01 0.01 0.26 0.08 0.05 0.00 0.02 0.03 0.01 0.00 0.00 0.00 0.00 0.00 0.00 0.00 0.00 0.00 0.00 0.00 0.00 0.00 0.00 0.00 0.00 0.00 0.00 0.00 0.00 0.01 0.02 0.02 0.02 0.02 0.01
0.01 0.94 0.17 0.71 0.02 0.02 0.04 0.00 0.02 0.03 0.01 0.01 0.00 0.00 0.00 0.00 0.00 0.00 0.00 0.00 0.00 0.00 0.00 0.00 0.00 0.00 0.00 0.00 0.00 0.00 0.00 0.00 0.00 0.00 0.00 0.00 0.03 0.05 0.04 0.05 0.08 0.03 0.02 0.03
0.09 0.58 1.24 1.75 0.07 0.09 0.80 0.17 0.00 0.00 0.00 0.00 0.06 0.02 0.15 0.06 0.00 0.00 0.00 0.00 0.00 0.00 0.00 0.00 0.00 0.00 0.00 0.00 0.00 0.00 0.00 0.02 0.03 0.04 0.10 0.10 0.12 0.18 0.10 0.06 0.08 0.07 0.06 0.06
0.06 0.55 1.17 2.18 1.33 2.87 0.35 0.00 0.00 0.00 0.01 0.05 0.17 0.33 0.20 0.07 0.01 0.01 0.01 0.02 0.00 0.00 0.00 0.00 0.00 0.00 0.00 0.00 0.00 0.00 0.03 0.04 0.06 0.19 0.27 0.17 0.14 0.26 0.06 0.06 0.05 0.08 0.05 0.06
0.00 0.04 1.12 3.21 2.14 0.19 0.05 0.01 0.00 0.06 0.11 0.18 0.26 0.12 0.03 0.00 0.00 0.00 0.00 0.00 0.00 0.00 0.00 0.00 0.00 0.00 0.00 0.00 0.00 0.05 0.05 0.05 0.06 0.07 0.12 0.13 0.20 0.29 0.11 0.33 0.06 0.06 0.19 0.11
0.03 0.01 0.26 2.36 2.97 2.09 0.03 0.00 0.00 0.00 0.34 0.35 0.42 0.24 0.15 0.02 0.35 0.04 0.00 0.00 0.00 0.00 0.00 0.00 0.00 0.00 0.00 0.03 0.04 0.06 0.06 0.06 0.06 0.07 0.07 0.09 0.18 0.42 0.33 0.18 0.28 0.33 0.32 0.29
0.71 1.27 1.64 1.78 2.71 0.94 0.24 0.10 0.01 0.70 0.62 0.38 0.18 0.13 0.08 0.20 0.08 0.01 0.00 0.00 0.00 0.00 0.00 0.00 0.00 0.02 0.05 0.06 0.07 0.06 0.06 0.07 0.08 0.14 0.11 0.13 0.18 0.45 0.28 0.33 0.27 0.39 0.43 0.22
0.25 1.06 2.25 1.75 2.26 2.53 0.09 0.03 0.11 0.12 0.05 0.14 0.03 0.03 0.05 0.01 0.00 0.00 0.00 0.00 0.00 0.01 0.01 0.02 0.10 0.07 0.06 0.10 0.11 0.08 0.07 0.07 0.11 0.13 0.14 0.28 0.49 0.46 0.46 0.84 0.50 0.70 0.61 0.60
0.74 0.22 0.92 0.41 0.53 0.01 0.08 0.06 0.03 0.03 0.21 0.09 0.05 0.03 0.00 0.00 0.00 0.00 0.00 0.00 0.00 0.06 0.08 0.11 0.15 0.12 0.08 0.11 0.17 0.25 0.10 0.11 0.15 0.52 0.73 0.73 0.64 0.64 0.64 0.99 0.58 0.83 0.71 0.86
0.03 0.00 0.26 0.27 0.01 0.01 0.01 0.00 0.00 0.01 0.03 0.03 0.03 0.04 0.02 0.02 0.03 0.06 0.08 0.07 0.05 0.07 0.06 0.12 0.19 0.16 0.15 0.22 0.28 0.33 0.19 0.17 1.12 1.05 0.51 0.40 0.53 0.44 0.55 0.78 0.95 1.31 1.02 0.84
0.08 0.08 0.12 0.21 0.00 0.00 0.00 0.00 0.00 0.01 0.03 0.05 0.05 0.04 0.00 0.03 0.10 0.07 0.13 0.15 0.06 0.06 0.09 0.12 0.17 0.16 0.21 0.17 0.21 0.34 0.33 0.41 0.64 0.68 0.36 0.52 0.76 0.85 0.48 0.43 0.79 0.68 0.44 0.97
0.00 0.00 0.02 0.25 0.00 0.00 0.00 0.00 0.00 0.01 0.02 0.03 0.04 0.05 0.05 0.06 0.06 0.07 0.12 0.06 0.10 0.12 0.13 0.16 0.13 0.15 0.19 0.26 0.31 0.45 0.62 0.62 0.65 0.39 0.58 0.57 0.56 0.49 0.44 0.45 0.45 nan nan nan
SL_Ratio
nan nan nan nan nan nan nan nan nan nan nan nan nan nan nan nan nan nan nan nan nan nan nan nan nan nan nan nan nan nan nan nan nan nan nan nan nan nan nan nan nan nan nan nan
nan nan nan nan nan nan nan nan nan nan nan nan nan nan nan nan nan nan nan nan nan nan nan nan nan nan nan nan nan nan nan nan nan nan nan nan nan nan nan nan nan nan nan nan
nan nan nan nan nan nan nan nan nan nan nan nan nan nan nan nan nan nan nan nan nan nan nan nan nan nan nan nan nan nan nan nan nan nan nan nan nan nan nan nan nan nan nan nan
nan nan nan nan nan nan nan nan nan nan nan nan nan 5.0 nan nan nan nan nan nan nan nan nan nan nan nan nan nan nan nan nan nan nan nan nan nan nan nan nan nan nan nan nan nan
nan nan nan nan nan nan nan nan nan nan nan nan nan nan nan nan nan nan nan nan nan nan nan nan nan nan nan nan nan nan nan nan nan nan nan nan nan nan nan nan nan nan nan nan
nan nan nan nan nan nan nan nan nan nan nan 5.2 nan nan nan nan nan nan nan nan nan nan nan nan nan nan nan nan nan nan nan nan nan nan nan nan nan nan nan nan nan nan nan nan
nan nan nan nan nan nan nan nan 5.0 5.2 5.4 5.1 nan 4.9 nan nan nan nan nan nan nan nan nan nan nan nan nan nan nan nan nan nan nan nan nan nan nan nan nan nan nan nan nan nan
nan nan nan nan nan nan nan nan 5.2 7.1 5.9 4.6 5.3 5.4 3.3 nan nan nan nan nan nan nan nan nan nan nan nan nan nan nan nan nan nan nan nan nan nan nan nan nan nan nan nan nan
4.2 4.4 nan nan nan nan nan nan nan 5.4 6.7 6.5 nan nan nan nan nan nan nan nan nan nan nan nan nan nan nan nan nan nan nan nan nan nan nan nan nan nan nan nan nan nan nan nan
nan 5.3 nan nan nan nan nan nan 5.7 5.6 8.2 9.0 5.0 nan nan nan nan nan nan nan nan nan nan nan nan nan nan nan nan nan nan nan nan nan nan nan nan nan nan nan nan nan nan nan
nan 5.0 4.3 5.0 nan nan nan nan 5.0 5.4 5.7 7.4 7.5 5.1 nan nan nan nan nan nan nan nan nan nan nan nan nan nan nan nan nan nan nan nan nan nan nan nan nan nan nan nan nan nan
nan 5.0 5.5 5.0 nan nan nan nan nan 5.5 6.3 5.3 4.9 6.7 nan nan nan nan nan nan nan nan nan 2.5 nan nan nan nan 5.0 5.0 nan 5.0 nan nan nan nan nan nan nan nan nan nan nan nan
nan 4.3 5.9 5.9 5.8 nan nan nan 5.0 5.1 5.2 7.0 8.1 7.2 nan nan nan nan nan nan nan nan nan nan nan 5.0 nan nan nan nan 5.0 nan 6.3 5.7 6.0 5.0 5.0 nan nan nan nan nan nan nan
nan 3.7 5.0 6.6 5.5 nan 5.7 5.1 5.1 5.6 7.4 6.2 6.3 5.8 nan nan nan nan nan nan nan nan nan nan nan nan nan nan nan nan nan nan nan nan nan 5.0 5.0 5.0 nan nan 5.6 nan nan nan
3.3 5.0 4.1 4.3 4.8 4.9 5.7 5.8 5.0 5.4 4.8 8.3 5.1 5.2 nan 5.6 5.9 5.8 nan nan nan nan nan nan nan nan nan nan nan nan nan nan nan nan nan nan nan nan 6.3 6.4 6.3 6.3 6.3 6.2
3.5 6.0 5.2 6.7 3.9 3.9 5.5 4.6 4.0 4.2 4.7 5.0 nan nan nan nan nan nan nan nan nan nan nan nan nan nan nan nan nan nan nan nan 10.0 6.0 5.0 7.5 7.1 7.1 7.1 6.9 6.9 6.8 6.8 6.6
4.8 5.1 6.8 8.3 5.2 5.5 8.5 5.3 5.0 nan nan nan 5.8 6.8 5.3 6.1 5.6 nan 5.0 nan nan nan nan nan nan nan nan nan nan nan nan 6.3 7.5 7.9 8.2 8.0 8.1 9.4 7.9 7.6 7.5 7.2 7.2 6.7
4.4 5.5 5.6 8.3 7.5 10.1 6.1 nan nan nan 6.6 6.5 6.7 7.1 6.4 6.5 6.0 5.0 5.1 4.8 nan nan nan nan nan nan nan nan nan nan 6.9 7.6 8.1 9.3 9.9 9.6 9.8 10.0 8.5 8.0 8.2 8.0 7.7 8.0
nan 4.4 8.8 8.7 8.9 5.9 5.5 7.5 5.8 7.0 7.0 6.5 7.3 6.5 6.1 nan nan nan nan nan nan nan nan nan nan nan nan nan nan 8.2 8.6 8.5 8.8 9.2 9.7 9.9 10.2 10.4 10.2 9.8 10.5 10.7 9.4 8.2
4.2 3.8 5.0 8.9 9.2 9.7 6.1 nan nan nan 9.1 7.0 7.2 6.9 6.3 5.7 6.9 5.4 nan nan nan nan nan nan nan nan 5.0 6.2 8.1 9.2 9.8 10.1 10.7 10.2 10.3 10.6 11.1 10.7 10.9 10.3 10.1 9.3 8.9 9.1
8.0 8.1 8.9 8.1 8.7 7.5 5.3 5.9 3.7 9.2 8.0 5.6 6.0 6.2 6.2 6.5 5.3 5.0 nan nan nan nan nan nan nan 7.2 7.4 8.9 9.9 10.5 10.4 11.0 11.0 11.2 11.8 11.7 11.5 10.8 11.2 10.5 9.6 9.7 9.3 9.2
8.6 9.0 9.2 9.1 9.5 9.6 5.7 5.5 10.1 8.0 4.9 5.5 5.3 5.0 5.5 5.3 5.0 5.0 nan nan nan 5.8 5.8 6.7 9.2 9.4 9.1 9.9 11.5 10.7 10.6 10.9 11.4 11.9 12.6 11.4 10.8 11.0 10.4 9.6 9.5 9.0 9.0 8.8
8.9 7.8 9.2 7.9 7.9 4.5 5.0 4.7 4.0 4.3 5.0 4.7 5.2 5.4 5.0 5.0 nan nan nan nan nan 6.5 8.5 9.1 9.6 9.8 10.0 9.9 11.2 12.4 11.4 12.0 11.9 10.5 10.3 10.5 10.4 10.3 10.2 9.6 9.6 8.6 8.4 8.1
4.8 nan 6.2 7.4 5.0 5.3 4.8 2.5 nan 4.2 4.9 4.8 5.2 5.6 5.4 5.3 5.6 6.5 6.9 7.2 7.8 8.8 9.3 9.5 9.9 10.5 11.1 10.2 10.7 11.1 12.1 11.9 9.9 10.1 10.6 10.9 10.7 9.9 10.0 9.4 9.1 8.4 8.4 8.4
5.2 4.4 4.8 6.0 4.2 nan nan nan nan 3.8 5.3 5.9 5.7 5.8 5.5 5.7 7.2 7.0 7.2 7.4 7.5 9.1 9.8 10.1 10.3 10.3 11.0 11.8 12.1 11.4 12.7 12.2 10.9 10.7 11.4 10.9 10.3 10.0 10.1 10.0 11.4 10.8 9.9 9.8
nan 5.0 7.7 7.7 nan nan nan nan nan 4.1 5.4 5.7 6.3 7.0 7.1 6.7 7.0 7.3 7.7 7.6 8.0 8.4 9.7 10.5 11.1 12.5 14.3 13.3 12.8 12.3 12.0 11.7 11.3 11.6 10.8 10.8 10.7 10.3 9.9 10.1 10.5 nan nan nan